Change the Weather History Date:

Wednesday, February 12, 2014

  Actual Average Record
Temperature  
Mean Temperature 28 °F -  
Max Temperature 50 °F 55 °F 56 °F (2015)
Min Temperature 25 °F 32 °F 25 °F (2014)
Degree Days  
Heating Degree Days 37    
Moisture  
Dew Point 27 °F    
Average Humidity 94    
Maximum Humidity 100    
Minimum Humidity 68    
Precipitation  
Precipitation 0.00 in - - ()
Sea Level Pressure  
Sea Level Pressure 30.11 in    
Wind  
Wind Speed - (North)    
Max Wind Speed -    
Max Gust Speed -    
Visibility 4 miles    
Events Snow    
Averages and records for this station are not official NWS values.
T = Trace of Precipitation, MM = Missing Value Source: NWS Daily Summary

Daily Weather History Graph

Daily Weather History Graph

Search for Another Location

Airport or City:

Trip Planner

Search our weather history database for the weather conditions in past years. The results will help you decide how hot, cold, wet, or windy it might be!

Date:

Astronomy

Feb. 12, 2014 Rise Set
Actual Time 7:19 AM EST 6:10 PM EST
Civil Twilight 6:53 AM EST 6:36 PM EST
Nautical Twilight 6:23 AM EST 7:06 PM EST
Astronomical Twilight 5:54 AM EST 7:36 PM EST
Moon 4:25 PM EST (2/12) 5:33 AM EST (2/12)
Length of Visible Light 11h 43m
Length of Day
10h 51m
Waxing Gibbous, 95% of the Moon is Illuminated
Feb 12
Waxing Gibbous
Feb 14
Full
Feb 22
Last Quarter
Mar 1
New
Mar 8
First Quarter

Hourly Weather History & Observations

Time (EST) Temp. Dew Point Humidity Pressure Visibility Wind Dir Wind Speed Gust Speed Precip Events Conditions
12:15 AM 31.1 °F 31.5 °F 100% 30.30 in 7.0 mi North - - N/A   Scattered Clouds
12:35 AM 31.1 °F 31.5 °F 100% 30.29 in 7.0 mi North - - N/A   Mostly Cloudy
12:55 AM 31.1 °F 31.5 °F 100% 30.29 in 7.0 mi North - - N/A   Mostly Cloudy
1:15 AM 31.1 °F 31.5 °F 100% 30.29 in 7.0 mi North - - N/A   Overcast
1:35 AM 31.1 °F 31.5 °F 100% 30.29 in 7.0 mi North - - N/A   Overcast
1:55 AM 31.5 °F 31.6 °F 100% 30.28 in 7.0 mi North - - N/A   Overcast
2:15 AM 31.6 °F 31.8 °F 100% 30.28 in 7.0 mi North - - N/A   Overcast
2:35 AM 31.6 °F 31.8 °F 100% 30.29 in 7.0 mi North - - N/A   Overcast
2:55 AM 31.6 °F 31.8 °F 100% 30.28 in 7.0 mi North - - N/A   Overcast
3:15 AM 31.6 °F 31.6 °F 100% 30.28 in 7.0 mi North - - N/A   Overcast
3:35 AM 31.6 °F 31.3 °F 99% 30.27 in 5.0 mi North - - N/A Snow Light Snow
3:55 AM 31.3 °F 30.4 °F 96% 30.27 in 5.0 mi North - - N/A Snow Light Snow
4:15 AM 31.1 °F 30.4 °F 97% 30.25 in 7.0 mi North - - N/A Snow Light Snow
4:35 AM 31.1 °F 30.2 °F 96% 30.26 in 7.0 mi North - - N/A   Overcast
4:55 AM 31.1 °F 28.8 °F 91% 30.26 in 10.0 mi North - - N/A   Overcast
5:15 AM 30.7 °F 26.1 °F 83% 30.26 in 10.0 mi North - - N/A   Overcast
5:35 AM 30.4 °F 24.8 °F 80% 30.26 in 10.0 mi North - - N/A   Overcast
5:55 AM 30.0 °F 23.9 °F 78% 30.26 in 10.0 mi North - - N/A   Overcast
6:15 AM 29.8 °F 22.3 °F 73% 30.26 in 10.0 mi North - - N/A   Overcast
6:35 AM 29.5 °F 21.4 °F 72% 30.27 in 10.0 mi North - - N/A   Overcast
6:55 AM 29.3 °F 20.5 °F 70% 30.29 in 10.0 mi North - - N/A   Overcast
7:15 AM 29.3 °F 20.1 °F 69% 30.29 in 10.0 mi North - - N/A   Overcast
7:35 AM 29.1 °F 19.6 °F 68% 30.30 in 10.0 mi North - - N/A Snow Light Snow
7:55 AM 28.0 °F 20.7 °F 74% 30.30 in 2.5 mi North - - N/A Snow Light Snow
8:15 AM 26.6 °F 23.0 °F 86% 30.31 in 1.0 mi North - - N/A Snow Light Snow
8:35 AM 25.9 °F 24.3 °F 94% 30.31 in 1.0 mi North - - N/A Snow Light Snow
8:55 AM 25.7 °F 24.8 °F 96% 30.30 in 1.0 mi North - - N/A Snow Light Snow
9:15 AM 25.7 °F 24.8 °F 96% 30.29 in 1.0 mi North - - N/A Snow Light Snow
9:35 AM 26.1 °F 24.8 °F 95% 30.28 in 1.0 mi North - - N/A Snow Light Snow
9:55 AM 26.2 °F 25.0 °F 95% 30.26 in 1.2 mi North - - N/A Snow Light Snow
10:15 AM 26.6 °F 25.0 °F 94% 30.24 in 1.2 mi North - - N/A Snow Light Snow
10:35 AM 26.6 °F 24.3 °F 91% 30.23 in 3.0 mi North - - N/A Snow Light Snow
10:55 AM 27.0 °F 23.9 °F 88% 30.22 in 4.0 mi North - - N/A   Overcast
11:15 AM 27.0 °F 23.7 °F 88% 30.22 in 3.0 mi North - - N/A Snow Light Snow
11:35 AM 26.8 °F 24.3 °F 90% 30.22 in 1.5 mi North - - N/A Snow Light Snow
11:55 AM 26.6 °F 24.8 °F 93% 30.20 in 1.2 mi North - - N/A Snow Light Snow
12:15 PM 27.1 °F 25.2 °F 92% 30.20 in 1.0 mi North - - N/A Snow Light Snow
12:35 PM 27.3 °F 25.7 °F 94% 30.18 in 1.5 mi North - - N/A Snow Light Snow
12:55 PM 27.5 °F 25.7 °F 93% 30.17 in 1.2 mi North - - N/A Snow Light Snow
1:15 PM 27.5 °F 25.3 °F 92% 30.16 in 4.0 mi North - - N/A Snow Light Snow
1:35 PM 27.5 °F 25.3 °F 92% 30.14 in 2.0 mi North - - N/A Snow Light Snow
1:55 PM 27.5 °F 25.3 °F 92% 30.12 in 1.2 mi North - - N/A Snow Light Snow
2:15 PM 27.5 °F 25.5 °F 92% 30.10 in 2.0 mi North - - N/A Snow Light Snow
2:35 PM 27.5 °F 25.3 °F 92% 30.07 in 2.5 mi North - - N/A Snow Light Snow
2:55 PM 27.5 °F 24.6 °F 89% 30.04 in 4.0 mi North - - N/A   Overcast
3:15 PM 27.3 °F 24.3 °F 88% 30.02 in 5.0 mi North - - N/A   Overcast
3:35 PM 27.5 °F 25.0 °F 90% 30.00 in 5.0 mi North - - N/A   Overcast
3:55 PM 27.3 °F 25.7 °F 94% 29.99 in 5.0 mi North - - N/A   Overcast
4:15 PM 27.5 °F 26.4 °F 96% 29.97 in 4.0 mi North - - N/A Snow Light Snow
4:35 PM 27.5 °F 26.8 °F 97% 29.96 in 2.5 mi North - - N/A Snow Light Snow
4:55 PM 27.7 °F 27.1 °F 98% 29.94 in 2.0 mi North - - N/A Snow Light Snow
5:15 PM 27.9 °F 27.9 °F 100% 29.93 in 2.0 mi North - - N/A Snow Light Snow
5:35 PM 28.6 °F 28.6 °F 100% 29.92 in 2.0 mi North - - N/A Snow Light Snow
5:55 PM 29.3 °F 29.1 °F 99% 29.90 in 2.5 mi North - - N/A   Overcast
6:15 PM 29.3 °F 29.3 °F 100% 29.90 in 4.0 mi North - - N/A   Overcast
6:35 PM 29.5 °F 29.7 °F 100% 29.90 in 3.0 mi North - - N/A   Overcast
6:55 PM 29.8 °F 30.0 °F 100% 29.88 in 2.5 mi North - - N/A Snow Light Snow
7:15 PM 30.0 °F 30.2 °F 100% 29.87 in 2.5 mi North - - N/A Snow Light Snow
7:35 PM 30.2 °F 30.2 °F 100% 29.89 in 3.0 mi North - - N/A   Overcast
7:55 PM 30.2 °F 30.4 °F 100% 29.90 in 2.5 mi North - - N/A Snow Light Snow
8:15 PM 30.0 °F 30.0 °F 100% 29.88 in 2.5 mi North - - N/A Snow Light Snow
8:35 PM 29.7 °F 29.8 °F 100% 29.89 in 2.5 mi North - - N/A Snow Light Snow
8:55 PM 29.8 °F 30.0 °F 100% 29.89 in 3.0 mi North - - N/A Snow Light Snow
9:15 PM 29.8 °F 30.0 °F 100% 29.88 in 2.5 mi North - - N/A Snow Light Snow
9:35 PM 30.0 °F 30.2 °F 100% 29.87 in 3.0 mi North - - N/A Snow Light Snow
9:55 PM 30.0 °F 30.2 °F 100% 29.87 in 2.5 mi North - - N/A Snow Light Snow
10:15 PM 30.2 °F 30.2 °F 100% 29.85 in 2.5 mi North - - N/A Snow Light Snow
10:35 PM 30.4 °F 30.6 °F 100% 29.83 in 4.0 mi North - - N/A   Overcast
10:55 PM 30.6 °F 30.6 °F 100% 29.83 in 7.0 mi North - - N/A   Overcast
11:15 PM 30.7 °F 30.9 °F 100% 29.81 in 10.0 mi North - - N/A   Overcast
11:35 PM 31.1 °F 31.1 °F 100% 29.80 in 7.0 mi North - - N/A   Overcast
11:55 PM 31.1 °F 31.3 °F 100% 29.79 in 5.0 mi North - - N/A   Overcast